Orbital Elements at Epoch 2459000.5 (2020-May-31.0) TDB
Reference: JPL 11 (heliocentric ecliptic J2000)
Element | Value | Uncertainty (1-sigma) | Units |
e | .1433840788101721 | 5.741e-08 | |
a | 2.257240677715486 | 1.9402e-08 | au |
q | 1.933588302488402 | 1.3076e-07 | au |
i | 3.165253925137271 | 8.0999e-06 | deg |
node | 145.4768031895318 | 0.0001056 | deg |
peri | 327.003663417711 | 0.00010938 | deg |
M | 143.7843759198271 | 2.7258e-05 | deg |
tp | 2458505.762961572447 (2019-Jan-22.26296157) | 9.2625e-05 | TDB |
period | 1238.697408494711 3.39 | 1.597e-05 4.372e-08 | d yr |
n | .2906278785530672 | 3.747e-09 | deg/d |
Q | 2.58089305294257 | 2.2184e-08 | au |
|
| | Orbit Determination Parameters
Additional Information
|